Overview Statistics Trail Chart Weather Telemetry Raw packets
 

This is the latest recevied weather packets stored in our database for station/object AB4BJ-10. If no packets are shown the sender has not sent any weather packets the latest 10 day(s).

<< 36 37 38 39 40 41 42 >>
Time Temp. Humidity Pressure Rain* Wind** Luminosity Snow
1788378303 35° C 56% 1013.4 hPa 0 mm - - -
1788378215 35° C 57% 1013.5 hPa 0 mm - - -
1788378002 35° C 57% 1013.5 hPa 0 mm - - -
1788377755 35° C 53% 1013.5 hPa 0 mm - - -
1788377704 35° C 53% 1013.5 hPa 0 mm - - -
1788377403 35.56° C 55% 1013.6 hPa 0 mm - - -
1788377103 36.11° C 54% 1013.7 hPa 0 mm - - -
1788376801 36.11° C 55% 1013.7 hPa 0 mm - - -
1788376779 35.56° C 54% 1013.8 hPa 0 mm - - -
1788376501 35.56° C 54% 1013.8 hPa 0 mm - - -
1788376201 35.56° C 54% 1013.8 hPa 0 mm - - -
1788375902 35° C 58% 1013.9 hPa 0 mm - - -
1788375300 33.89° C 57% 1014.1 hPa 0 mm - - -
1788374699 33.89° C 58% 1014.3 hPa 0 mm - - -
1788374399 33.89° C 57% 1014.4 hPa 0 mm - - -
1788374099 33.89° C 57% 1014.3 hPa 0 mm - - -
1788373798 33.89° C 59% 1014.4 hPa 0 mm - - -
1788373498 33.89° C 60% 1014.5 hPa 0 mm - - -
1788373198 33.89° C 60% 1014.5 hPa 0 mm - - -
1788372898 33.89° C 58% 1014.6 hPa 0 mm - - -
1788372828 33.89° C 59% 1014.6 hPa 0 mm - - -
1788372597 33.89° C 59% 1014.6 hPa 0 mm - - -
1788372515 33.33° C 61% 1014.7 hPa 0 mm - - -
1788372297 33.33° C 61% 1014.7 hPa 0 mm - - -
1788371999 33.33° C 59% 1014.7 hPa 0 mm - - -

* Rain latest hour (hover to see other rain measurements)
** Current wind speed in m/s (hover to see current wind gust speed)